| time (UTC) | temp F | wind direction | speed MPH | gust MPH | rain 1hr in | rain 24hr in | rain mn in | humidity % | barometer mb |
| 20260507164600 | 54 | 320 | 0.0 | 0.0 | 0.00 | 0.00 | 0.00 | 52 | 1010.1 |
| 20260507164100 | 55 | 273 | 0.0 | 0.0 | 0.00 | 0.00 | 0.00 | 51 | 1010.1 |
| 20260507163603 | 54 | 298 | 0.0 | 0.0 | 0.00 | 0.00 | 0.00 | 54 | 1010.1 |
| 20260507163102 | 54 | 192 | 0.0 | 0.0 | 0.00 | 0.00 | 0.00 | 52 | 1010.2 |
| 20260507162558 | 54 | 188 | 0.0 | 0.0 | 0.00 | 0.00 | 0.00 | 50 | 1010.3 |
| 20260507162102 | 55 | 298 | 0.0 | 0.0 | 0.00 | 0.00 | 0.00 | 53 | 1010.4 |
| 20260507161604 | 54 | 196 | 0.0 | 0.0 | 0.00 | 0.00 | 0.00 | 54 | 1010.3 |
| 20260507161056 | 55 | 271 | 0.0 | 0.0 | 0.00 | 0.00 | 0.00 | 52 | 1010.4 |
| 20260507160556 | 55 | 323 | 0.0 | 0.0 | 0.00 | 0.00 | 0.00 | 51 | 1010.4 |
| 20260507160100 | 54 | 342 | 0.0 | 0.0 | 0.00 | 0.00 | 0.00 | 54 | 1010.5 |
| 20260507155553 | 53 | 261 | 0.0 | 0.0 | 0.00 | 0.00 | 0.00 | 54 | 1010.6 |
| 20260507155053 | 52 | 284 | 0.0 | 0.0 | 0.00 | 0.00 | 0.00 | 54 | 1010.6 |
| 20260507154553 | 52 | 255 | 0.0 | 0.0 | 0.00 | 0.00 | 0.00 | 53 | 1010.6 |
| 20260507154054 | 53 | 262 | 0.0 | 0.0 | 0.00 | 0.00 | 0.00 | 53 | 1010.6 |
| 20260507153554 | 54 | 232 | 0.0 | 0.0 | 0.00 | 0.00 | 0.00 | 55 | 1010.6 |
| 20260507153055 | 52 | 360 | 0.0 | 0.0 | 0.00 | 0.00 | 0.00 | 56 | 1010.8 |
| 20260507152551 | 51 | 261 | 0.0 | 0.0 | 0.00 | 0.00 | 0.00 | 55 | 1010.7 |
| 20260507152050 | 51 | 279 | 0.0 | 0.0 | 0.00 | 0.00 | 0.00 | 57 | 1010.8 |
| 20260507151550 | 51 | 236 | 0.0 | 0.0 | 0.00 | 0.00 | 0.00 | 57 | 1010.8 |
| 20260507151049 | 52 | 261 | 0.0 | 0.0 | 0.00 | 0.00 | 0.00 | 57 | 1010.8 |
| 20260507150549 | 51 | 345 | 0.0 | 0.0 | 0.00 | 0.00 | 0.00 | 58 | 1010.7 |
| 20260507150047 | 51 | 288 | 0.0 | 0.0 | 0.00 | 0.00 | 0.00 | 58 | 1010.8 |
| 20260507145546 | 50 | 222 | 0.0 | 0.0 | 0.00 | 0.00 | 0.00 | 61 | 1010.9 |
| 20260507145045 | 50 | 262 | 0.0 | 0.0 | 0.00 | 0.00 | 0.00 | 62 | 1010.9 |
| 20260507144549 | 50 | 264 | 0.0 | 0.0 | 0.00 | 0.00 | 0.00 | 62 | 1010.8 |
| 20260507144044 | 50 | 293 | 0.0 | 0.0 | 0.00 | 0.00 | 0.00 | 62 | 1010.9 |
| 20260507143543 | 50 | 196 | 0.0 | 0.0 | 0.00 | 0.00 | 0.00 | 62 | 1010.9 |
| 20260507143043 | 50 | 228 | 0.0 | 0.0 | 0.00 | 0.00 | 0.00 | 63 | 1010.9 |
| 20260507142543 | 50 | 261 | 0.0 | 0.0 | 0.00 | 0.00 | 0.00 | 64 | 1010.9 |
| 20260507142043 | 50 | 259 | 0.0 | 0.0 | 0.00 | 0.00 | 0.00 | 64 | 1010.9 |
| 20260507141542 | 50 | 162 | 0.0 | 0.0 | 0.00 | 0.00 | 0.00 | 66 | 1011.0 |
| 20260507141040 | 49 | 162 | 0.0 | 0.0 | 0.00 | 0.00 | 0.00 | 66 | 1011.0 |
| 20260507140539 | 49 | 162 | 0.0 | 0.0 | 0.00 | 0.00 | 0.00 | 67 | 1011.2 |
| 20260507140057 | 48 | 161 | 0.0 | 0.0 | 0.00 | 0.00 | 0.00 | 69 | 1011.2 |
| 20260507135538 | 48 | 163 | 0.0 | 0.0 | 0.00 | 0.00 | 0.00 | 67 | 1011.2 |
| 20260507135038 | 48 | 162 | 0.0 | 0.0 | 0.00 | 0.00 | 0.00 | 67 | 1011.2 |
| 20260507134538 | 48 | 162 | 0.0 | 0.0 | 0.00 | 0.00 | 0.00 | 67 | 1011.3 |
| 20260507134036 | 48 | 162 | 0.0 | 0.0 | 0.00 | 0.00 | 0.00 | 68 | 1011.2 |
| 20260507133537 | 47 | 162 | 0.0 | 0.0 | 0.00 | 0.00 | 0.00 | 69 | 1011.3 |
| 20260507133035 | 46 | 163 | 0.0 | 0.0 | 0.00 | 0.00 | 0.00 | 67 | 1011.4 |
| 20260507132534 | 46 | 163 | 0.0 | 0.0 | 0.00 | 0.00 | 0.00 | 67 | 1011.4 |
| 20260507132034 | 45 | 145 | 0.0 | 0.0 | 0.00 | 0.00 | 0.00 | 67 | 1011.5 |
| 20260507131535 | 45 | 148 | 0.0 | 0.0 | 0.00 | 0.00 | 0.00 | 68 | 1011.5 |
| 20260507131031 | 45 | 153 | 0.0 | 0.0 | 0.00 | 0.00 | 0.00 | 68 | 1011.5 |
| 20260507130534 | 44 | 82 | 0.0 | 0.0 | 0.00 | 0.00 | 0.00 | 75 | 1011.5 |
| 20260507130028 | 43 | 82 | 0.0 | 0.0 | 0.00 | 0.00 | 0.00 | 79 | 1011.5 |
| 20260507125532 | 43 | 82 | 0.0 | 0.0 | 0.00 | 0.00 | 0.00 | 81 | 1011.6 |
| 20260507125026 | 42 | 83 | 0.0 | 0.0 | 0.00 | 0.00 | 0.00 | 85 | 1011.7 |
| 20260507124527 | 42 | 83 | 0.0 | 0.0 | 0.00 | 0.00 | 0.00 | 87 | 1011.7 |
| 20260507124027 | 42 | 83 | 0.0 | 0.0 | 0.00 | 0.00 | 0.00 | 88 | 1011.7 |
| 20260507123526 | 41 | 40 | 0.0 | 0.0 | 0.00 | 0.00 | 0.00 | 90 | 1011.8 |
| 20260507123032 | 41 | 40 | 0.0 | 0.0 | 0.00 | 0.00 | 0.00 | 91 | 1011.6 |
| 20260507122528 | 41 | 40 | 0.0 | 0.0 | 0.00 | 0.00 | 0.00 | 92 | 1011.7 |
| 20260507122025 | 40 | 40 | 0.0 | 0.0 | 0.00 | 0.00 | 0.00 | 92 | 1011.8 |
| 20260507121536 | 40 | 40 | 0.0 | 0.0 | 0.00 | 0.00 | 0.00 | 92 | 1011.7 |
| 20260507121025 | 40 | 40 | 0.0 | 0.0 | 0.00 | 0.00 | 0.00 | 92 | 1011.7 |
| 20260507120524 | 41 | 39 | 0.0 | 0.0 | 0.00 | 0.00 | 0.00 | 93 | 1011.8 |
| 20260507120024 | 41 | 309 | 0.0 | 0.0 | 0.00 | 0.00 | 0.00 | 93 | 1011.9 |
| 20260507115524 | 41 | 304 | 0.0 | 0.0 | 0.00 | 0.00 | 0.00 | 93 | 1012.0 |
| 20260507115024 | 41 | 304 | 0.0 | 0.0 | 0.00 | 0.00 | 0.00 | 93 | 1011.9 |
| 20260507114524 | 41 | 304 | 0.0 | 0.0 | 0.00 | 0.00 | 0.00 | 93 | 1012.0 |
| 20260507114026 | 41 | 304 | 0.0 | 0.0 | 0.00 | 0.00 | 0.00 | 93 | 1012.0 |
| 20260507113524 | 41 | 304 | 0.0 | 0.0 | 0.00 | 0.00 | 0.00 | 93 | 1012.1 |
| 20260507113033 | 41 | 304 | 0.0 | 0.0 | 0.00 | 0.00 | 0.00 | 93 | 1012.1 |
| 20260507112523 | 41 | 304 | 0.0 | 0.0 | 0.00 | 0.00 | 0.00 | 93 | 1012.1 |
| 20260507112023 | 41 | 304 | 0.0 | 0.0 | 0.00 | 0.00 | 0.00 | 94 | 1012.0 |
| 20260507111524 | 41 | 305 | 0.0 | 0.0 | 0.00 | 0.00 | 0.00 | 93 | 1011.9 |
| 20260507111022 | 41 | 305 | 0.0 | 0.0 | 0.00 | 0.00 | 0.00 | 93 | 1011.8 |
| 20260507110521 | 40 | 305 | 0.0 | 0.0 | 0.00 | 0.00 | 0.00 | 93 | 1011.4 |
| 20260507110027 | 40 | 305 | 0.0 | 0.0 | 0.00 | 0.00 | 0.00 | 93 | 1011.4 |
| 20260507105520 | 40 | 305 | 0.0 | 0.0 | 0.00 | 0.00 | 0.00 | 93 | 1011.3 |
| 20260507105021 | 40 | 305 | 0.0 | 0.0 | 0.00 | 0.00 | 0.00 | 93 | 1011.2 |
| 20260507104521 | 40 | 305 | 0.0 | 0.0 | 0.00 | 0.00 | 0.00 | 93 | 1011.1 |
| 20260507104024 | 39 | 305 | 0.0 | 0.0 | 0.00 | 0.00 | 0.00 | 92 | 1011.2 |
| 20260507103521 | 39 | 305 | 0.0 | 0.0 | 0.00 | 0.00 | 0.00 | 92 | 1011.1 |
| 20260507103020 | 39 | 305 | 0.0 | 0.0 | 0.00 | 0.00 | 0.00 | 92 | 1011.1 |
| 20260507102521 | 39 | 305 | 0.0 | 0.0 | 0.00 | 0.00 | 0.00 | 92 | 1011.0 |
| 20260507102021 | 39 | 305 | 0.0 | 0.0 | 0.00 | 0.00 | 0.00 | 92 | 1011.0 |
| 20260507101527 | 39 | 305 | 0.0 | 0.0 | 0.00 | 0.00 | 0.00 | 92 | 1011.0 |
| 20260507101020 | 39 | 305 | 0.0 | 0.0 | 0.00 | 0.00 | 0.00 | 92 | 1011.0 |
| 20260507100519 | 38 | 305 | 0.0 | 0.0 | 0.00 | 0.00 | 0.00 | 92 | 1011.0 |
| 20260507100026 | 38 | 305 | 0.0 | 0.0 | 0.00 | 0.00 | 0.00 | 92 | 1011.1 |
| 20260507095519 | 38 | 305 | 0.0 | 0.0 | 0.00 | 0.00 | 0.00 | 92 | 1011.0 |
| 20260507095019 | 38 | 305 | 0.0 | 0.0 | 0.00 | 0.00 | 0.00 | 92 | 1011.1 |
| 20260507094522 | 38 | 305 | 0.0 | 0.0 | 0.00 | 0.00 | 0.00 | 92 | 1011.0 |
| 20260507094018 | 38 | 305 | 0.0 | 0.0 | 0.00 | 0.00 | 0.00 | 92 | 1011.1 |
| 20260507093519 | 38 | 305 | 0.0 | 0.0 | 0.00 | 0.00 | 0.00 | 91 | 1010.9 |
| 20260507093033 | 38 | 305 | 0.0 | 0.0 | 0.00 | 0.00 | 0.00 | 91 | 1011.0 |
| 20260507092519 | 38 | 305 | 0.0 | 0.0 | 0.00 | 0.00 | 0.00 | 91 | 1011.0 |
| 20260507092017 | 38 | 305 | 0.0 | 0.0 | 0.00 | 0.00 | 0.00 | 91 | 1011.0 |
| 20260507091517 | 38 | 305 | 0.0 | 0.0 | 0.00 | 0.00 | 0.00 | 91 | 1010.9 |
| 20260507091017 | 38 | 305 | 0.0 | 0.0 | 0.00 | 0.00 | 0.00 | 91 | 1010.8 |
| 20260507090517 | 38 | 305 | 0.0 | 0.0 | 0.00 | 0.00 | 0.00 | 91 | 1011.0 |
| 20260507090028 | 38 | 305 | 0.0 | 0.0 | 0.00 | 0.00 | 0.00 | 91 | 1011.0 |
| 20260507085516 | 38 | 305 | 0.0 | 0.0 | 0.00 | 0.00 | 0.00 | 91 | 1011.0 |
| 20260507085017 | 38 | 305 | 0.0 | 0.0 | 0.00 | 0.00 | 0.00 | 91 | 1011.0 |
| 20260507084516 | 38 | 305 | 0.0 | 0.0 | 0.00 | 0.00 | 0.00 | 90 | 1010.9 |
| 20260507084017 | 38 | 305 | 0.0 | 0.0 | 0.00 | 0.00 | 0.00 | 91 | 1010.8 |
| 20260507083515 | 38 | 305 | 0.0 | 0.0 | 0.00 | 0.00 | 0.00 | 91 | 1010.8 |
| 20260507083031 | 38 | 305 | 0.0 | 0.0 | 0.00 | 0.00 | 0.00 | 91 | 1010.9 |
| 20260507082512 | 39 | 305 | 0.0 | 0.0 | 0.00 | 0.00 | 0.00 | 90 | 1010.9 |
| 20260507082013 | 39 | 305 | 0.0 | 0.0 | 0.00 | 0.00 | 0.00 | 91 | 1010.9 |
| 20260507081513 | 39 | 305 | 0.0 | 0.0 | 0.00 | 0.00 | 0.00 | 91 | 1010.9 |
| 20260507081011 | 39 | 305 | 0.0 | 0.0 | 0.00 | 0.00 | 0.00 | 91 | 1010.7 |
| 20260507080511 | 39 | 305 | 0.0 | 0.0 | 0.00 | 0.00 | 0.00 | 91 | 1010.8 |
| 20260507080011 | 39 | 305 | 0.0 | 0.0 | 0.00 | 0.00 | 0.00 | 91 | 1010.8 |
| 20260507075511 | 39 | 305 | 0.0 | 0.0 | 0.00 | 0.00 | 0.00 | 91 | 1010.8 |
| 20260507075011 | 39 | 305 | 0.0 | 0.0 | 0.00 | 0.00 | 0.00 | 91 | 1010.8 |
| 20260507074524 | 39 | 305 | 0.0 | 0.0 | 0.00 | 0.00 | 0.00 | 91 | 1010.8 |
| 20260507074010 | 39 | 305 | 0.0 | 0.0 | 0.00 | 0.00 | 0.00 | 90 | 1010.8 |
| 20260507073512 | 39 | 305 | 0.0 | 0.0 | 0.00 | 0.00 | 0.00 | 90 | 1010.8 |
| 20260507073009 | 39 | 305 | 0.0 | 0.0 | 0.00 | 0.00 | 0.00 | 90 | 1010.8 |
| 20260507072509 | 39 | 305 | 0.0 | 0.0 | 0.00 | 0.00 | 0.00 | 90 | 1010.7 |
| 20260507072008 | 39 | 305 | 0.0 | 0.0 | 0.00 | 0.00 | 0.00 | 90 | 1010.7 |
| 20260507071508 | 40 | 305 | 0.0 | 0.0 | 0.00 | 0.00 | 0.00 | 90 | 1010.9 |
| 20260507071008 | 40 | 305 | 0.0 | 0.0 | 0.00 | 0.00 | 0.00 | 90 | 1010.9 |
| 20260507070507 | 40 | 305 | 0.0 | 0.0 | 0.00 | 0.00 | 0.00 | 90 | 1010.8 |
| 20260507070011 | 40 | 305 | 0.0 | 0.0 | 0.00 | 0.00 | 0.00 | 89 | 1010.8 |
| 20260507065507 | 40 | 305 | 0.0 | 0.0 | 0.00 | 0.00 | 0.00 | 90 | 1010.8 |
| 20260507065005 | 41 | 305 | 0.0 | 0.0 | 0.00 | 0.00 | 0.00 | 89 | 1010.8 |
| 20260507064505 | 41 | 305 | 0.0 | 0.0 | 0.00 | 0.00 | 0.00 | 89 | 1010.9 |
| 20260507064001 | 41 | 305 | 0.0 | 0.0 | 0.00 | 0.00 | 0.00 | 89 | 1011.2 |
| 20260507063500 | 41 | 305 | 0.0 | 0.0 | 0.00 | 0.00 | 0.00 | 89 | 1011.2 |
| 20260507063102 | 42 | 305 | 0.0 | 0.0 | 0.00 | 0.00 | 0.00 | 89 | 1011.2 |
| 20260507062559 | 42 | 305 | 0.0 | 0.0 | 0.00 | 0.00 | 0.00 | 89 | 1011.3 |
| 20260507062059 | 42 | 305 | 0.0 | 0.0 | 0.00 | 0.00 | 0.00 | 89 | 1011.3 |
| 20260507061558 | 42 | 305 | 0.0 | 0.0 | 0.00 | 0.00 | 0.00 | 89 | 1011.4 |
| 20260507061056 | 42 | 305 | 0.0 | 0.0 | 0.00 | 0.00 | 0.00 | 89 | 1011.3 |
| 20260507060556 | 42 | 305 | 0.0 | 0.0 | 0.00 | 0.00 | 0.00 | 89 | 1011.2 |
| 20260507060055 | 43 | 305 | 0.0 | 0.0 | 0.00 | 0.00 | 0.00 | 89 | 1011.3 |
| 20260507055555 | 43 | 305 | 0.0 | 0.0 | 0.00 | 0.00 | 0.00 | 89 | 1011.2 |
| 20260507055054 | 43 | 305 | 0.0 | 0.0 | 0.00 | 0.00 | 0.00 | 89 | 1011.2 |
| 20260507054604 | 43 | 305 | 0.0 | 0.0 | 0.00 | 0.00 | 0.00 | 89 | 1011.4 |
| 20260507054053 | 43 | 305 | 0.0 | 0.0 | 0.00 | 0.00 | 0.00 | 89 | 1011.5 |
| 20260507053552 | 43 | 305 | 0.0 | 0.0 | 0.00 | 0.00 | 0.00 | 89 | 1011.4 |
| 20260507053055 | 43 | 305 | 0.0 | 0.0 | 0.00 | 0.00 | 0.00 | 89 | 1011.5 |
| 20260507052554 | 43 | 305 | 0.0 | 0.0 | 0.00 | 0.00 | 0.00 | 88 | 1011.5 |
| 20260507052050 | 43 | 305 | 0.0 | 0.0 | 0.00 | 0.00 | 0.00 | 88 | 1011.6 |
| 20260507051550 | 43 | 305 | 0.0 | 0.0 | 0.00 | 0.00 | 0.00 | 88 | 1011.7 |
| 20260507051048 | 44 | 305 | 0.0 | 0.0 | 0.00 | 0.00 | 0.00 | 88 | 1011.6 |
| 20260507050549 | 44 | 305 | 0.0 | 0.0 | 0.00 | 0.00 | 0.00 | 88 | 1011.6 |
| 20260507050048 | 44 | 305 | 0.0 | 0.0 | 0.00 | 0.00 | 0.00 | 88 | 1011.7 |
| 20260507045549 | 44 | 305 | 0.0 | 0.0 | 0.00 | 0.00 | 0.00 | 88 | 1011.8 |
| 20260507045048 | 44 | 305 | 0.0 | 0.0 | 0.00 | 0.00 | 0.00 | 88 | 1011.9 |
| 20260507044546 | 44 | 305 | 0.0 | 0.0 | 0.00 | 0.00 | 0.00 | 88 | 1011.7 |
| 20260507044047 | 44 | 305 | 0.0 | 0.0 | 0.00 | 0.00 | 0.00 | 88 | 1011.7 |
| 20260507043546 | 44 | 305 | 0.0 | 0.0 | 0.00 | 0.00 | 0.00 | 88 | 1011.7 |
| 20260507043046 | 44 | 305 | 0.0 | 0.0 | 0.00 | 0.00 | 0.00 | 88 | 1011.8 |
| 20260507042546 | 44 | 305 | 0.0 | 0.0 | 0.00 | 0.00 | 0.00 | 88 | 1011.8 |
| 20260507042045 | 44 | 305 | 0.0 | 0.0 | 0.00 | 0.00 | 0.00 | 88 | 1011.8 |
| 20260507041545 | 44 | 305 | 0.0 | 0.0 | 0.00 | 0.00 | 0.00 | 88 | 1011.8 |
| 20260507041044 | 44 | 305 | 0.0 | 0.0 | 0.00 | 0.00 | 0.00 | 88 | 1011.8 |
| 20260507040544 | 44 | 305 | 0.0 | 0.0 | 0.00 | 0.00 | 0.00 | 88 | 1011.8 |
| 20260507040056 | 44 | 305 | 0.0 | 0.0 | 0.00 | 0.00 | 0.00 | 88 | 1011.8 |
| 20260507035542 | 44 | 305 | 0.0 | 0.0 | 0.00 | 0.00 | 0.42 | 88 | 1011.6 |
| 20260507035042 | 44 | 305 | 0.0 | 0.0 | 0.00 | 0.00 | 0.42 | 88 | 1011.8 |
| 20260507034553 | 44 | 305 | 0.0 | 0.0 | 0.00 | 0.00 | 0.42 | 88 | 1011.8 |
| 20260507034042 | 44 | 305 | 0.0 | 0.0 | 0.00 | 0.00 | 0.42 | 88 | 1011.6 |
| 20260507033542 | 44 | 305 | 0.0 | 0.0 | 0.00 | 0.00 | 0.42 | 88 | 1011.7 |
| 20260507033044 | 44 | 305 | 0.0 | 0.0 | 0.00 | 0.00 | 0.42 | 88 | 1011.7 |
| 20260507032544 | 44 | 305 | 0.0 | 0.0 | 0.00 | 0.00 | 0.42 | 88 | 1011.5 |
| 20260507032041 | 44 | 305 | 0.0 | 0.0 | 0.00 | 0.00 | 0.42 | 88 | 1011.4 |
| 20260507031542 | 44 | 305 | 0.0 | 0.0 | 0.00 | 0.00 | 0.42 | 88 | 1011.4 |
| 20260507031041 | 44 | 305 | 0.0 | 0.0 | 0.00 | 0.00 | 0.42 | 88 | 1011.5 |
| 20260507030541 | 44 | 305 | 0.0 | 0.0 | 0.00 | 0.00 | 0.42 | 88 | 1011.6 |
| 20260507030041 | 44 | 305 | 0.0 | 0.0 | 0.00 | 0.00 | 0.42 | 88 | 1011.6 |
| 20260507025540 | 44 | 305 | 0.0 | 0.0 | 0.00 | 0.00 | 0.42 | 88 | 1011.7 |
| 20260507025041 | 44 | 317 | 0.0 | 0.0 | 0.00 | 0.00 | 0.42 | 87 | 1011.5 |
| 20260507024541 | 44 | 317 | 0.0 | 0.0 | 0.00 | 0.00 | 0.42 | 88 | 1011.4 |
| 20260507024041 | 44 | 317 | 0.0 | 0.0 | 0.00 | 0.00 | 0.42 | 87 | 1011.4 |
| 20260507023540 | 44 | 317 | 0.0 | 0.0 | 0.00 | 0.00 | 0.42 | 87 | 1011.3 |
| 20260507023040 | 44 | 317 | 0.0 | 0.0 | 0.00 | 0.00 | 0.42 | 87 | 1011.4 |
| 20260507022540 | 44 | 317 | 0.0 | 0.0 | 0.00 | 0.00 | 0.42 | 88 | 1011.3 |
| 20260507022040 | 44 | 317 | 0.0 | 0.0 | 0.00 | 0.00 | 0.42 | 88 | 1011.4 |
| 20260507021544 | 44 | 317 | 0.0 | 0.0 | 0.00 | 0.00 | 0.42 | 88 | 1011.6 |
| 20260507021039 | 44 | 317 | 0.0 | 0.0 | 0.00 | 0.00 | 0.42 | 88 | 1011.4 |
| 20260507020540 | 44 | 317 | 0.0 | 0.0 | 0.00 | 0.00 | 0.42 | 88 | 1011.6 |
| 20260507020040 | 44 | 317 | 0.0 | 0.0 | 0.00 | 0.00 | 0.42 | 88 | 1011.8 |
| 20260507015539 | 44 | 317 | 0.0 | 0.0 | 0.00 | 0.00 | 0.42 | 88 | 1011.8 |
| 20260507015039 | 44 | 317 | 0.0 | 0.0 | 0.00 | 0.00 | 0.42 | 88 | 1011.9 |
| 20260507014539 | 44 | 317 | 0.0 | 0.0 | 0.00 | 0.00 | 0.42 | 88 | 1011.9 |
| 20260507014038 | 44 | 317 | 0.0 | 0.0 | 0.00 | 0.00 | 0.42 | 88 | 1011.8 |
| 20260507013542 | 44 | 344 | 0.0 | 0.0 | 0.00 | 0.00 | 0.42 | 88 | 1011.8 |
| 20260507013039 | 44 | 344 | 0.0 | 0.0 | 0.00 | 0.00 | 0.42 | 88 | 1011.8 |
| 20260507012537 | 44 | 344 | 0.0 | 0.0 | 0.00 | 0.00 | 0.42 | 88 | 1011.7 |
| 20260507012037 | 44 | 344 | 0.0 | 0.0 | 0.00 | 0.00 | 0.42 | 88 | 1011.6 |
| 20260507011540 | 44 | 344 | 0.0 | 0.0 | 0.00 | 0.00 | 0.42 | 88 | 1011.5 |
| 20260507011035 | 43 | 344 | 0.0 | 0.0 | 0.00 | 0.00 | 0.42 | 88 | 1011.5 |
| 20260507010535 | 43 | 344 | 0.0 | 0.0 | 0.00 | 0.00 | 0.42 | 87 | 1011.5 |
| 20260507010035 | 44 | 344 | 0.0 | 0.0 | 0.00 | 0.00 | 0.42 | 88 | 1011.4 |
| 20260507005534 | 43 | 344 | 0.0 | 0.0 | 0.00 | 0.00 | 0.42 | 87 | 1011.3 |
| 20260507005037 | 44 | 344 | 0.0 | 0.0 | 0.00 | 0.00 | 0.42 | 87 | 1011.3 |
| 20260507004534 | 44 | 344 | 0.0 | 0.0 | 0.00 | 0.00 | 0.42 | 87 | 1011.2 |
| 20260507004033 | 44 | 344 | 0.0 | 0.0 | 0.00 | 0.00 | 0.42 | 87 | 1011.3 |
| 20260507003535 | 44 | 344 | 0.0 | 0.0 | 0.00 | 0.00 | 0.42 | 87 | 1011.2 |
| 20260507003032 | 44 | 344 | 0.0 | 0.0 | 0.00 | 0.00 | 0.42 | 87 | 1011.1 |
| 20260507002532 | 44 | 344 | 0.0 | 0.0 | 0.00 | 0.00 | 0.42 | 88 | 1011.0 |
| 20260507002031 | 44 | 344 | 0.0 | 0.0 | 0.00 | 0.00 | 0.42 | 87 | 1011.0 |
| 20260507001541 | 44 | 344 | 0.0 | 0.0 | 0.00 | 0.00 | 0.42 | 87 | 1011.0 |
| 20260507001030 | 44 | 344 | 0.0 | 0.0 | 0.00 | 0.00 | 0.42 | 87 | 1010.9 |
| 20260507000530 | 44 | 344 | 0.0 | 0.0 | 0.00 | 0.00 | 0.42 | 88 | 1010.8 |
| 20260507000030 | 44 | 344 | 0.0 | 0.0 | 0.00 | 0.00 | 0.42 | 88 | 1010.8 |
| 20260506235530 | 44 | 345 | 0.0 | 0.0 | 0.00 | 0.00 | 0.42 | 88 | 1010.8 |
| 20260506235031 | 44 | 344 | 0.0 | 0.0 | 0.00 | 0.00 | 0.42 | 88 | 1010.8 |
| 20260506234540 | 44 | 344 | 0.0 | 0.0 | 0.00 | 0.00 | 0.42 | 88 | 1010.8 |
| 20260506234029 | 44 | 345 | 0.0 | 0.0 | 0.00 | 0.00 | 0.42 | 88 | 1010.6 |
| 20260506233529 | 44 | 355 | 0.0 | 0.0 | 0.00 | 0.00 | 0.42 | 89 | 1010.7 |
| 20260506233029 | 44 | 323 | 0.0 | 0.0 | 0.00 | 0.00 | 0.42 | 89 | 1010.7 |
| 20260506232529 | 44 | 306 | 0.0 | 0.0 | 0.00 | 0.00 | 0.42 | 89 | 1010.8 |
| 20260506232028 | 44 | 306 | 0.0 | 0.0 | 0.00 | 0.00 | 0.42 | 89 | 1010.8 |
| 20260506231534 | 43 | 300 | 0.0 | 0.0 | 0.00 | 0.00 | 0.42 | 89 | 1010.8 |
| 20260506231027 | 43 | 291 | 0.0 | 0.0 | 0.00 | 0.00 | 0.42 | 89 | 1010.7 |
| 20260506230525 | 44 | 316 | 0.0 | 0.0 | 0.00 | 0.00 | 0.42 | 89 | 1010.6 |
| 20260506230026 | 44 | 325 | 0.0 | 0.0 | 0.00 | 0.00 | 0.42 | 90 | 1010.5 |
| 20260506225525 | 44 | 343 | 0.0 | 0.0 | 0.00 | 0.00 | 0.42 | 90 | 1010.3 |
| 20260506225025 | 43 | 306 | 0.0 | 0.0 | 0.00 | 0.00 | 0.42 | 90 | 1010.3 |
| 20260506224529 | 43 | 285 | 0.0 | 0.0 | 0.00 | 0.00 | 0.42 | 90 | 1010.3 |
| 20260506224024 | 43 | 324 | 0.0 | 0.0 | 0.00 | 0.00 | 0.42 | 90 | 1010.2 |
| 20260506223525 | 43 | 328 | 0.0 | 0.0 | 0.00 | 0.00 | 0.42 | 90 | 1010.1 |
| 20260506223023 | 43 | 10 | 0.0 | 0.0 | 0.00 | 0.00 | 0.42 | 90 | 1010.0 |
| 20260506222523 | 43 | 355 | 0.0 | 0.0 | 0.00 | 0.00 | 0.42 | 90 | 1010.0 |
| 20260506222023 | 43 | 349 | 0.0 | 0.0 | 0.00 | 0.00 | 0.42 | 90 | 1010.0 |
| 20260506221523 | 43 | 344 | 0.0 | 0.0 | 0.00 | 0.00 | 0.42 | 90 | 1010.0 |
| 20260506221021 | 43 | 312 | 0.0 | 0.0 | 0.00 | 0.00 | 0.42 | 90 | 1009.7 |
| 20260506220521 | 43 | 273 | 0.0 | 0.0 | 0.00 | 0.00 | 0.42 | 90 | 1009.8 |
| 20260506220021 | 43 | 306 | 0.0 | 0.0 | 0.00 | 0.00 | 0.42 | 90 | 1009.8 |
| 20260506215520 | 43 | 329 | 0.0 | 0.0 | 0.00 | 0.00 | 0.42 | 90 | 1009.8 |
| 20260506215019 | 43 | 300 | 0.0 | 0.0 | 0.00 | 0.00 | 0.42 | 90 | 1009.8 |
| 20260506214519 | 43 | 323 | 0.0 | 0.0 | 0.00 | 0.00 | 0.42 | 90 | 1009.7 |
| 20260506214019 | 44 | 304 | 0.0 | 0.0 | 0.00 | 0.00 | 0.42 | 90 | 1009.7 |
| 20260506213519 | 44 | 308 | 0.0 | 0.0 | 0.00 | 0.00 | 0.42 | 90 | 1009.6 |
| 20260506213021 | 44 | 274 | 0.0 | 0.0 | 0.00 | 0.00 | 0.42 | 89 | 1009.7 |
| 20260506212520 | 44 | 313 | 0.0 | 0.0 | 0.00 | 0.00 | 0.42 | 89 | 1009.6 |
| 20260506212016 | 44 | 298 | 0.0 | 0.0 | 0.00 | 0.00 | 0.42 | 89 | 1009.4 |
| 20260506211518 | 44 | 300 | 0.0 | 0.0 | 0.00 | 0.00 | 0.42 | 88 | 1009.2 |
| 20260506211013 | 45 | 273 | 0.0 | 0.0 | 0.00 | 0.00 | 0.42 | 88 | 1009.0 |
| 20260506210513 | 45 | 274 | 0.0 | 0.0 | 0.00 | 0.00 | 0.42 | 87 | 1008.9 |
| 20260506210015 | 46 | 312 | 0.0 | 0.0 | 0.00 | 0.00 | 0.42 | 87 | 1008.9 |
| 20260506205512 | 46 | 268 | 0.0 | 0.0 | 0.00 | 0.00 | 0.42 | 86 | 1008.9 |
| 20260506205011 | 47 | 316 | 0.0 | 0.0 | 0.00 | 0.00 | 0.42 | 85 | 1008.7 |
| 20260506204511 | 48 | 298 | 0.0 | 0.0 | 0.00 | 0.00 | 0.42 | 84 | 1008.6 |
| 20260506204014 | 49 | 288 | 0.0 | 0.0 | 0.00 | 0.00 | 0.42 | 83 | 1008.6 |
| 20260506203510 | 50 | 250 | 0.0 | 0.0 | 0.00 | 0.00 | 0.42 | 81 | 1008.5 |
| 20260506203009 | 51 | 259 | 0.0 | 0.0 | 0.00 | 0.00 | 0.42 | 80 | 1008.3 |
| 20260506202509 | 51 | 209 | 0.0 | 0.0 | 0.00 | 0.00 | 0.42 | 80 | 1008.2 |
| 20260506202009 | 51 | 192 | 0.0 | 0.0 | 0.00 | 0.00 | 0.42 | 80 | 1008.1 |
| 20260506201510 | 51 | 231 | 0.0 | 0.0 | 0.00 | 0.00 | 0.42 | 80 | 1008.1 |
| 20260506201009 | 51 | 205 | 0.0 | 0.0 | 0.00 | 0.00 | 0.42 | 79 | 1008.2 |
| 20260506200508 | 51 | 238 | 0.0 | 0.0 | 0.00 | 0.00 | 0.42 | 80 | 1008.2 |
| 20260506200011 | 52 | 232 | 0.0 | 0.0 | 0.00 | 0.00 | 0.42 | 80 | 1008.3 |
| 20260506195508 | 52 | 233 | 0.0 | 0.0 | 0.00 | 0.00 | 0.42 | 80 | 1008.2 |
| 20260506195008 | 52 | 241 | 0.0 | 0.0 | 0.00 | 0.00 | 0.42 | 81 | 1008.1 |
| 20260506194508 | 51 | 222 | 0.0 | 0.0 | 0.00 | 0.00 | 0.42 | 81 | 1008.2 |
| 20260506194009 | 51 | 233 | 0.0 | 0.0 | 0.00 | 0.00 | 0.42 | 82 | 1008.3 |
| 20260506193508 | 51 | 227 | 0.0 | 0.0 | 0.00 | 0.00 | 0.42 | 82 | 1008.3 |
| 20260506193008 | 51 | 247 | 0.0 | 0.0 | 0.00 | 0.00 | 0.42 | 81 | 1008.2 |
| 20260506192508 | 51 | 264 | 0.0 | 0.0 | 0.00 | 0.00 | 0.42 | 82 | 1008.2 |
| 20260506192008 | 51 | 293 | 0.0 | 0.0 | 0.00 | 0.00 | 0.42 | 81 | 1008.2 |
| 20260506191510 | 51 | 293 | 0.0 | 0.0 | 0.00 | 0.00 | 0.42 | 81 | 1008.1 |
| 20260506191007 | 51 | 293 | 0.0 | 0.0 | 0.00 | 0.00 | 0.42 | 80 | 1008.2 |
| 20260506190507 | 52 | 293 | 0.0 | 0.0 | 0.00 | 0.00 | 0.42 | 80 | 1008.1 |
| 20260506190007 | 52 | 293 | 0.0 | 0.0 | 0.00 | 0.00 | 0.42 | 78 | 1008.0 |
| 20260506185506 | 52 | 293 | 0.0 | 0.0 | 0.00 | 0.00 | 0.42 | 78 | 1007.9 |
| 20260506185006 | 52 | 298 | 0.0 | 0.0 | 0.00 | 0.00 | 0.42 | 79 | 1008.0 |
| 20260506184506 | 52 | 298 | 0.0 | 0.0 | 0.00 | 0.00 | 0.42 | 80 | 1008.0 |
| 20260506184005 | 52 | 298 | 0.0 | 0.0 | 0.00 | 0.00 | 0.42 | 80 | 1008.0 |
| 20260506183505 | 52 | 298 | 0.0 | 0.0 | 0.00 | 0.00 | 0.42 | 82 | 1008.0 |
| 20260506183002 | 52 | 298 | 0.0 | 0.0 | 0.00 | 0.00 | 0.42 | 84 | 1008.0 |
| 20260506182501 | 51 | 298 | 0.0 | 0.0 | 0.00 | 0.00 | 0.42 | 83 | 1008.0 |
| 20260506182001 | 51 | 298 | 0.0 | 0.0 | 0.00 | 0.00 | 0.42 | 84 | 1008.0 |
| 20260506181502 | 51 | 298 | 0.0 | 0.0 | 0.00 | 0.00 | 0.42 | 85 | 1008.1 |
| 20260506181100 | 51 | 298 | 0.0 | 0.0 | 0.00 | 0.00 | 0.42 | 86 | 1008.1 |
| 20260506180559 | 50 | 298 | 0.0 | 0.0 | 0.00 | 0.00 | 0.42 | 86 | 1008.1 |
| 20260506180059 | 50 | 298 | 0.0 | 0.0 | 0.00 | 0.00 | 0.42 | 85 | 1008.1 |
| 20260506175559 | 50 | 298 | 0.0 | 0.0 | 0.00 | 0.00 | 0.42 | 87 | 1008.1 |
| 20260506175057 | 50 | 298 | 0.0 | 0.0 | 0.00 | 0.00 | 0.42 | 87 | 1008.1 |
| 20260506174608 | 50 | 73 | 0.0 | 0.0 | 0.00 | 0.00 | 0.42 | 88 | 1008.1 |
| 20260506174056 | 49 | 73 | 0.0 | 0.0 | 0.00 | 0.00 | 0.42 | 88 | 1008.1 |
| 20260506173558 | 49 | 73 | 0.0 | 0.0 | 0.00 | 0.00 | 0.42 | 88 | 1008.2 |
| 20260506173057 | 49 | 73 | 0.0 | 0.0 | 0.00 | 0.00 | 0.42 | 89 | 1008.1 |
| 20260506172554 | 49 | 73 | 0.0 | 0.0 | 0.00 | 0.00 | 0.42 | 89 | 1008.2 |
| 20260506172054 | 49 | 73 | 0.0 | 0.0 | 0.00 | 0.00 | 0.42 | 90 | 1008.3 |
| 20260506171604 | 49 | 73 | 0.0 | 0.0 | 0.00 | 0.00 | 0.42 | 90 | 1008.2 |
| 20260506171054 | 49 | 73 | 0.0 | 0.0 | 0.00 | 0.00 | 0.42 | 90 | 1008.3 |
| 20260506170553 | 49 | 73 | 0.0 | 0.0 | 0.00 | 0.00 | 0.42 | 90 | 1008.2 |
| 20260506170053 | 49 | 72 | 0.0 | 0.0 | 0.00 | 0.00 | 0.42 | 90 | 1008.2 |
| 20260506165555 | 49 | 72 | 0.0 | 0.0 | 0.00 | 0.00 | 0.42 | 90 | 1008.2 |
| 20260506165053 | 49 | 72 | 0.0 | 0.0 | 0.00 | 0.00 | 0.42 | 91 | 1008.1 |